Volver al catálogo

SL-8 DEB

ActivoLEO
NORAD 21208·DEBRIS·🇷🇺 Russia

Lanzado Feb 12, 1991 desde Plesetsk Cosmodrome

Loading…

Próximos Pases (próximas 24 horas)

TLE

ActualizadoSource: Space-Track

Época: Sep 14, 2026, 07:17 UTC

1 21208U 91009BB  26257.30381497  .00000031  00000-0  38426-3 0  9999
2 21208  73.9611  26.1064 0148017 241.4801 139.2621 12.31159377592843

Sigue SL-8 DEB en tiempo real con AllMySat

Download on the App Store